Weather History for Hugo, OK

Change the Weather History Date:

Tuesday, April 8, 2014

  Actual Average Record
Temperature  
Mean Temperature 60 °F -  
Max Temperature 70 °F 73 °F 77 °F (2013)
Min Temperature 50 °F 49 °F 50 °F (2014)
Degree Days  
Heating Degree Days 5    
Growing Degree Days 10 (Base 50)    
Moisture  
Dew Point 41 °F    
Average Humidity 56    
Maximum Humidity 95    
Minimum Humidity 26    
Precipitation  
Precipitation 0.00 in - - ()
Sea Level Pressure  
Sea Level Pressure 30.02 in    
Wind  
Wind Speed 10 mph (NW)    
Max Wind Speed 30 mph    
Max Gust Speed 38 mph    
Visibility 10 miles    
Events      
Averages and records for this station are not official NWS values.
T = Trace of Precipitation, MM = Missing Value Source: NWS Daily Summary

Daily Weather History Graph

Daily Weather History Graph

Search for Another Location

Airport:

Trip Planner

Search our weather history database for the weather conditions in past years. The results will help you decide how hot, cold, wet, or windy it might be!

Date:

Astronomy

Apr. 08, 2014 Rise Set
Actual Time 7:00 AM CDT 7:48 PM CDT
Civil Twilight 6:34 AM CDT 8:13 PM CDT
Nautical Twilight 6:04 AM CDT 8:43 PM CDT
Astronomical Twilight 5:33 AM CDT 9:14 PM CDT
Moon 1:58 PM CDT (4/8) 2:57 AM CDT (4/8)
Length of Visible Light 13h 39m
Length of Day
12h 48m
Waxing Gibbous, 63% of the Moon is Illuminated
Apr 8
Waxing Gibbous
Apr 15
Full
Apr 22
Last Quarter
Apr 29
New
May 6
First Quarter

Hourly Weather History & Observations

Time (CDT) Temp. Dew Point Humidity Pressure Visibility Wind Dir Wind Speed Gust Speed Precip Events Conditions
12:15 AM 53.6 °F 52.2 °F 95% 29.94 in 10.0 mi WNW 3.5 mph - N/A   Scattered Clouds
12:35 AM 54.5 °F 52.0 °F 91% 29.94 in 10.0 mi West 4.6 mph - N/A   Scattered Clouds
12:55 AM 54.9 °F 51.8 °F 89% 29.94 in 10.0 mi WNW 3.5 mph - N/A   Clear
1:15 AM 54.0 °F 51.3 °F 91% 29.94 in 10.0 mi West 5.8 mph - N/A   Clear
1:35 AM 54.0 °F 51.4 °F 91% 29.93 in 10.0 mi West 6.9 mph - N/A   Clear
1:55 AM 53.6 °F 51.3 °F 92% 29.93 in 10.0 mi West 8.1 mph - N/A   Scattered Clouds
2:15 AM 54.1 °F 51.3 °F 90% 29.93 in 10.0 mi WNW 9.2 mph - N/A   Mostly Cloudy
2:35 AM 54.5 °F 50.5 °F 86% 29.93 in 10.0 mi NW 9.2 mph - N/A   Scattered Clouds
2:55 AM 54.5 °F 50.0 °F 85% 29.93 in 10.0 mi NW 9.2 mph - N/A   Mostly Cloudy
3:15 AM 53.8 °F 49.6 °F 86% 29.92 in 10.0 mi NW 8.1 mph - N/A   Mostly Cloudy
3:35 AM 53.2 °F 49.1 °F 86% 29.92 in 10.0 mi WNW 8.1 mph - N/A   Scattered Clouds
3:55 AM 53.1 °F 49.1 °F 86% 29.92 in 10.0 mi NW 8.1 mph - N/A   Scattered Clouds
4:15 AM 52.7 °F 48.4 °F 85% 29.92 in 10.0 mi NW 10.4 mph - N/A   Clear
4:35 AM 52.3 °F 47.7 °F 84% 29.92 in 10.0 mi NW 8.1 mph - N/A   Clear
4:55 AM 52.0 °F 47.3 °F 84% 29.92 in 10.0 mi WNW 8.1 mph - N/A   Clear
5:15 AM 51.4 °F 46.9 °F 85% 29.93 in 10.0 mi WNW 9.2 mph - N/A   Scattered Clouds
5:35 AM 51.6 °F 46.4 °F 82% 29.93 in 10.0 mi NW 9.2 mph - N/A   Scattered Clouds
5:55 AM 51.3 °F 46.0 °F 82% 29.93 in 10.0 mi NW 9.2 mph - N/A   Clear
6:15 AM 51.6 °F 45.7 °F 80% 29.94 in 10.0 mi NW 12.7 mph - N/A   Clear
6:35 AM 51.6 °F 45.5 °F 80% 29.95 in 10.0 mi NW 10.4 mph 17.3 mph N/A   Clear
6:55 AM 50.9 °F 45.5 °F 82% 29.96 in 10.0 mi NW 9.2 mph - N/A   Clear
7:15 AM 50.2 °F 45.5 °F 84% 29.97 in 10.0 mi NW 6.9 mph - N/A   Clear
7:35 AM 50.5 °F 45.7 °F 83% 29.97 in 10.0 mi NW 8.1 mph - N/A   Clear
7:55 AM 51.4 °F 45.9 °F 81% 29.98 in 10.0 mi NW 10.4 mph - N/A   Clear
8:15 AM 52.7 °F 46.6 °F 80% 29.99 in 10.0 mi NW 11.5 mph - N/A   Clear
8:35 AM 53.8 °F 46.6 °F 77% 30.00 in 10.0 mi NW 12.7 mph - N/A   Clear
8:55 AM 55.4 °F 46.9 °F 73% 30.00 in 10.0 mi NW 10.4 mph - N/A   Clear
9:15 AM 56.5 °F 46.4 °F 69% 30.00 in 10.0 mi NNW 10.4 mph - N/A   Clear
9:35 AM 57.4 °F 46.9 °F 68% 30.01 in 10.0 mi NW 18.4 mph - N/A   Clear
9:55 AM 58.5 °F 46.4 °F 64% 30.01 in 10.0 mi NNW 15.0 mph 19.6 mph N/A   Clear
10:15 AM 59.7 °F 46.8 °F 62% 30.02 in 10.0 mi NW 11.5 mph 20.7 mph N/A   Clear
10:35 AM 61.2 °F 47.1 °F 60% 30.03 in 10.0 mi NW 11.5 mph 19.6 mph N/A   Clear
10:55 AM 61.7 °F 45.9 °F 56% 30.04 in 10.0 mi NNW 16.1 mph 24.2 mph N/A   Clear
11:15 AM 62.6 °F 45.9 °F 54% 30.05 in 10.0 mi NW 15.0 mph 23.0 mph N/A   Clear
11:35 AM 63.9 °F 46.8 °F 54% 30.05 in 10.0 mi NW 17.3 mph 23.0 mph N/A   Clear
11:55 AM 64.9 °F 47.5 °F 53% 30.06 in 10.0 mi NW 16.1 mph 21.9 mph N/A   Scattered Clouds
12:15 PM 65.3 °F 46.0 °F 50% 30.05 in 10.0 mi NW 15.0 mph 24.2 mph N/A   Scattered Clouds
12:35 PM 66.0 °F 46.0 °F 48% 30.05 in 10.0 mi NW 17.3 mph 28.8 mph N/A   Mostly Cloudy
12:55 PM 65.8 °F 45.0 °F 47% 30.05 in 10.0 mi NW 19.6 mph 29.9 mph N/A   Mostly Cloudy
1:15 PM 67.5 °F 45.5 °F 45% 30.04 in 10.0 mi NW 19.6 mph 27.6 mph N/A   Mostly Cloudy
1:55 PM 68.4 °F 39.2 °F 34% 30.04 in 10.0 mi NNW 20.7 mph 29.9 mph N/A   Mostly Cloudy
2:15 PM 67.3 °F 36.3 °F 32% 30.03 in 10.0 mi NNW 29.9 mph 38.0 mph N/A   Mostly Cloudy
2:35 PM 69.1 °F 36.9 °F 31% 30.03 in 10.0 mi NNW 24.2 mph 29.9 mph N/A   Mostly Cloudy
2:55 PM 68.4 °F 34.9 °F 29% 30.03 in 10.0 mi NNW 26.5 mph 36.8 mph N/A   Mostly Cloudy
3:15 PM 70.0 °F 35.6 °F 28% 30.03 in 10.0 mi NNW 26.5 mph 32.2 mph N/A   Mostly Cloudy
3:35 PM 68.2 °F 33.6 °F 28% 30.02 in 10.0 mi NNW 21.9 mph 38.0 mph N/A   Mostly Cloudy
3:55 PM 68.4 °F 33.4 °F 27% 30.02 in 10.0 mi NNW 21.9 mph 32.2 mph N/A   Mostly Cloudy
4:15 PM 69.6 °F 33.3 °F 26% 30.02 in 10.0 mi NW 21.9 mph 34.5 mph N/A   Mostly Cloudy
4:35 PM 68.5 °F 32.4 °F 26% 30.03 in 10.0 mi NNW 25.3 mph 34.5 mph N/A   Mostly Cloudy
4:55 PM 67.8 °F 32.7 °F 27% 30.03 in 10.0 mi North 18.4 mph 26.5 mph N/A   Mostly Cloudy
5:15 PM 67.1 °F 32.2 °F 27% 30.03 in 10.0 mi North 12.7 mph 23.0 mph N/A   Scattered Clouds
5:35 PM 69.1 °F 32.4 °F 26% 30.03 in 10.0 mi North 17.3 mph 25.3 mph N/A   Clear
5:55 PM 68.5 °F 32.0 °F 26% 30.04 in 10.0 mi North 13.8 mph 27.6 mph N/A   Clear
6:15 PM 67.6 °F 32.5 °F 27% 30.04 in 10.0 mi North 13.8 mph 19.6 mph N/A   Clear
6:35 PM 69.1 °F 32.5 °F 26% 30.05 in 10.0 mi North 15.0 mph 20.7 mph N/A   Clear
6:55 PM 68.4 °F 32.4 °F 26% 30.05 in 10.0 mi North 12.7 mph 19.6 mph N/A   Clear
7:15 PM 67.3 °F 32.5 °F 28% 30.06 in 10.0 mi North 10.4 mph 16.1 mph N/A   Clear
7:35 PM 65.7 °F 34.0 °F 31% 30.07 in 10.0 mi North 8.1 mph - N/A   Clear
7:55 PM 64.2 °F 33.1 °F 31% 30.07 in 10.0 mi North 5.8 mph - N/A   Clear
8:15 PM 64.0 °F 32.5 °F 31% 30.09 in 10.0 mi North 5.8 mph - N/A   Clear
8:35 PM 63.0 °F 32.2 °F 32% 30.10 in 10.0 mi North 4.6 mph - N/A   Clear
8:55 PM 62.6 °F 32.2 °F 32% 30.10 in 10.0 mi North 3.5 mph - N/A   Clear
9:15 PM 61.7 °F 32.4 °F 33% 30.11 in 10.0 mi Calm Calm - N/A   Clear
9:35 PM 60.8 °F 32.9 °F 35% 30.12 in 10.0 mi North 3.5 mph - N/A   Clear
9:55 PM 60.8 °F 31.8 °F 34% 30.13 in 10.0 mi Calm Calm - N/A   Clear
10:15 PM 57.2 °F 33.1 °F 40% 30.14 in 10.0 mi Calm Calm - N/A   Clear
10:35 PM 57.2 °F 32.4 °F 39% 30.14 in 10.0 mi Calm Calm - N/A   Clear
10:55 PM 59.2 °F 31.6 °F 35% 30.14 in 10.0 mi Calm Calm - N/A   Clear
11:15 PM 59.0 °F 31.6 °F 36% 30.15 in 10.0 mi Calm Calm - N/A   Clear
11:35 PM 56.7 °F 31.8 °F 39% 30.15 in 10.0 mi Calm Calm - N/A   Clear
11:55 PM 55.4 °F 32.0 °F 41% 30.15 in 10.0 mi Calm Calm - N/A   Clear